TimeCST,TemperatureF,Dew PointF,Humidity,Sea Level PressureIn,VisibilityMPH,Wind Direction,Wind SpeedMPH,Gust SpeedMPH,PrecipitationIn,Events,Conditions,WindDirDegrees,DateUTC
12:51 AM,19.4,10.4,68,29.54,7.0,WNW,17.3,24.2,N/A,,Overcast,300,2014-02-14 06:51:00
12:53 AM,19.9,10.9,68,29.60,7.0,WNW,17.3,24.2,N/A,,Overcast,290,2014-02-14 06:53:00
1:53 AM,16.0,9.0,74,29.62,8.0,WNW,13.8,-,N/A,,Clear,290,2014-02-14 07:53:00
2:53 AM,15.1,8.1,74,29.63,7.0,WNW,10.4,-,N/A,,Clear,300,2014-02-14 08:53:00
3:53 AM,12.9,7.0,77,29.64,6.0,West,5.8,-,N/A,,Haze,270,2014-02-14 09:53:00
4:53 AM,12.0,6.1,77,29.67,7.0,WNW,11.5,-,N/A,,Clear,290,2014-02-14 10:53:00
5:53 AM,10.9,3.9,73,29.68,10.0,WNW,10.4,-,N/A,,Clear,290,2014-02-14 11:53:00
6:53 AM,10.0,3.0,73,29.69,10.0,WNW,12.7,-,N/A,,Clear,290,2014-02-14 12:53:00
7:53 AM,9.0,1.9,73,29.71,10.0,WNW,11.5,-,N/A,,Clear,290,2014-02-14 13:53:00
8:53 AM,10.9,3.0,70,29.75,10.0,WNW,8.1,-,N/A,,Clear,290,2014-02-14 14:53:00
9:53 AM,15.1,5.0,64,29.77,10.0,NW,11.5,-,N/A,,Clear,320,2014-02-14 15:53:00
10:53 AM,17.1,5.0,59,29.79,10.0,NW,11.5,-,N/A,,Scattered Clouds,320,2014-02-14 16:53:00
11:05 AM,17.1,6.1,62,29.73,10.0,NW,11.5,-,N/A,,Mostly Cloudy,310,2014-02-14 17:05:00
11:53 AM,19.0,7.0,59,29.78,10.0,NW,10.4,-,N/A,,Overcast,310,2014-02-14 17:53:00
12:38 PM,19.9,7.0,57,29.73,10.0,WNW,10.4,-,N/A,,Scattered Clouds,300,2014-02-14 18:38:00
12:53 PM,21.0,8.1,57,29.79,10.0,WNW,12.7,-,N/A,,Clear,300,2014-02-14 18:53:00
1:53 PM,21.9,9.0,58,29.80,10.0,NW,11.5,-,N/A,,Clear,310,2014-02-14 19:53:00
2:53 PM,21.9,8.1,55,29.82,10.0,WNW,11.5,-,N/A,,Clear,300,2014-02-14 20:53:00
3:53 PM,21.9,8.1,55,29.85,10.0,WNW,11.5,-,N/A,,Clear,300,2014-02-14 21:53:00
4:53 PM,19.9,7.0,57,29.87,10.0,WNW,10.4,-,N/A,,Clear,290,2014-02-14 22:53:00
5:53 PM,16.0,5.0,62,29.91,10.0,West,10.4,-,N/A,,Clear,280,2014-02-14 23:53:00
6:53 PM,14.0,3.9,64,29.94,10.0,West,10.4,-,N/A,,Clear,280,2014-02-15 00:53:00
7:53 PM,12.0,1.9,64,29.96,10.0,WNW,10.4,-,N/A,,Clear,290,2014-02-15 01:53:00
8:53 PM,10.9,1.0,64,29.97,10.0,WNW,9.2,-,N/A,,Clear,300,2014-02-15 02:53:00
9:53 PM,8.1,-0.9,67,29.99,10.0,WNW,9.2,-,N/A,,Clear,300,2014-02-15 03:53:00
10:53 PM,7.0,-2.0,67,30.00,10.0,WNW,8.1,-,N/A,,Partly Cloudy,290,2014-02-15 04:53:00
11:08 PM,7.0,-0.9,70,29.92,10.0,WNW,8.1,-,N/A,,Mostly Cloudy,290,2014-02-15 05:08:00
11:53 PM,8.1,-0.0,70,30.03,10.0,WNW,6.9,-,N/A,,Overcast,300,2014-02-15 05:53:00